カタログに戻る

SL-8 R/B

運用中PO
NORAD 24955·ROCKET BODY·🇷🇺 Russia

打ち上げ Sep 23, 1997 から Plesetsk Cosmodrome

Loading…

次のパス (今後24時間)

TLE

最新Source: Space-Track

元期: Sep 14, 2026, 17:01 UTC

1 24955U 97052C   26257.70954807  .00000185  00000-0  15802-3 0  9993
2 24955  82.9157 254.3890 0028926 334.2141  25.7575 13.81948915460779

AllMySatでSL-8 R/Bをリアルタイム追跡

Download on the App Store